Tracking 28790 objects as of 18-Apr-2024
HD Live streaming from Space Station
objects crossing your sky now

DELTA 1 DEB

Track DELTA 1 DEB now!
10-day predictions


NORAD ID: 26842
Int'l Code: 1975-052KW
Perigee: 958.5 km
Apogee: 1,022.3 km
Inclination: 99.8 °
Period: 104.8 minutes
Semi major axis: 7361 km
RCS: 0.0045 m2 (small)
Launch date: June 12, 1975
Source: United States (US)
Launch site: AIR FORCE WESTERN TEST RANGE (AFWTR)

Note: This is SATELLITE DEBRIS
Your satellite tracking list
Your tracking list is empty




NASA's NSSDC Master Catalog

Two Line Element Set (TLE):
1 26842U 75052KW  24107.67590255  .00001155  00000-0  12600-2 0  9997
2 26842  99.7593  66.3473 0043278 179.2116 357.5898 13.74554156308553
Source of the keplerian elements: AFSPC